Погода в Валье де ла Паскуа

Венесуэла     9°13′21″N   65°59′29″W
темп.,
°C
ветер,
м/с
пор.,
м/с
влажн.,
%
обл.,
%
осадки,
мм/ч
давл.,
гПа
погр.,
м
14 апреля, ср
ср1423:00+29всв365988 0.2 1011225
02:00+27всв257595 6.1 1010192
05:00+27всв2775100 0.1 1010470
08:00+27вюв3770100 1.4 1013704
11:00+30ююв3559100 1.3 10141323
14:00+30ююз2361100 2.6 10101118
17:00+29з2361100 0.1 1009953
20:00+28зюз2572100 0.1 1010272
15 апреля, чт
чт1523:00+27з2578100 0.0 1012298
02:00+25зюз3685100 2.0 1010304
05:00+24з1488100 1.7 1010161
08:00+25зюз2382100 3.2 1013277
11:00+29ююз226343 0.1 1013892
14:00+32ююв224991 1.0 10101792
17:00+30юв2255100 0.3 1008842
20:00+29зсз116388 0.3 101022
16 апреля, пт
пт1623:00+27в26718 0.1 1012215
02:00+26всв397443 0.1 1010485
05:00+25всв397955 0.0 1011631
08:00+26в496976 0.0 1013888
11:00+31в464852 0.0 10121635
14:00+35вюв463340 0.0 10082904
17:00+35вюв463117 0.0 10062773
20:00+30всв5105031 0.0 1010641
17 апреля, сб
сб1723:00+28св386299 0.0 1012460
02:00+27в396983 0.0 1011760
05:00+25в410705 0.0 1012809
08:00+26в596461 0.0 1014908
11:00+32вюв574167 0.0 10141749
14:00+35в46316 0.0 10102728
17:00+35в462761 0.0 10082943
20:00+30св510505 0.0 1011529
18 апреля, вс
вс1823:00+27св4106298 0.0 1013703
02:00+26всв4106910 0.0 1012804
05:00+25всв39665 0.0 1013804
08:00+26в486196 0.0 1015933
11:00+32в474067 0.0 10151843
14:00+35в462731 0.0 10112661
17:00+35в462491 0.0 10082988
20:00+29св495047 0.0 1011635